Ashland, VA

8:49 AM EDT on August 26, 2016 (GMT -0400)
Hanover County Municipal

Weather History for KOFP - May, 2013

Change the Weather History Date:

Thursday, May 23, 2013

  Actual Average Record
Temperature  
Mean Temperature 74 °F -  
Max Temperature 81 °F 77 °F 92 °F (1964)
Min Temperature 69 °F 55 °F 39 °F (1997)
Cooling Degree Days 10    
Growing Degree Days 24 (Base 50)    
Moisture  
Dew Point 68 °F    
Average Humidity 87    
Maximum Humidity 94    
Minimum Humidity 64    
Precipitation  
Precipitation 0.84 in - - ()
Sea Level Pressure  
Sea Level Pressure 29.87 in    
Wind  
Wind Speed 7 mph (South)    
Max Wind Speed 15 mph    
Max Gust Speed 22 mph    
Visibility 8 miles    
Events Rain , Thunderstorm    
Averages and records for this station are not official NWS values.
T = Trace of Precipitation, MM = Missing Value Source: NWS Daily Summary

Daily Weather History Graph

Daily Weather History Graph

Search for Another Location

Airport or City:

Trip Planner

Search our weather history database for the weather conditions in past years. The results will help you decide how hot, cold, wet, or windy it might be!

Date:

Astronomy

May. 23, 2013 Rise Set
Actual Time 5:54 AM EDT 8:19 PM EDT
Civil Twilight 5:24 AM EDT 8:49 PM EDT
Nautical Twilight 4:46 AM EDT 9:26 PM EDT
Astronomical Twilight 4:06 AM EDT 10:07 PM EDT
Moon 6:50 PM EDT (5/23) 4:35 AM EDT (5/23)
Length of Visible Light 15h 25m
Length of Day
14h 25m
Waxing Gibbous, 97% of the Moon is Illuminated
May 23
Waxing Gibbous
May 25
Full
May 31
Last Quarter
Jun 8
New
Jun 16
First Quarter

Hourly Weather History & Observations

Time (EDT) Temp. Heat Index Dew Point Humidity Pressure Visibility Wind Dir Wind Speed Gust Speed Precip Events Conditions
12:54 AM 73.9 °F - 66.9 °F 79% 29.94 in 10.0 mi South 11.5 mph 19.6 mph N/A   Clear
1:54 AM 70.0 °F - 68.0 °F 93% 29.93 in 8.0 mi Calm Calm - 0.01 in   Mostly Cloudy
2:54 AM 71.1 °F - 68.0 °F 90% 29.92 in 10.0 mi South 15.0 mph - N/A   Clear
3:54 AM 70.0 °F - 66.9 °F 90% 29.93 in 10.0 mi South 8.1 mph - N/A   Mostly Cloudy
4:54 AM 70.0 °F - 66.9 °F 90% 29.92 in 10.0 mi South 9.2 mph - N/A   Overcast
5:54 AM 70.0 °F - 66.9 °F 90% 29.92 in 10.0 mi South 8.1 mph - N/A   Overcast
6:01 AM 69.8 °F - 66.2 °F 88% 29.93 in 10.0 mi South 8.1 mph - N/A   Overcast
6:26 AM 69.8 °F - 66.2 °F 88% 29.93 in 10.0 mi South 6.9 mph - N/A   Overcast
6:47 AM 69.8 °F - 66.2 °F 88% 29.93 in 10.0 mi South 9.2 mph - N/A   Mostly Cloudy
6:54 AM 70.0 °F - 66.0 °F 87% 29.93 in 10.0 mi South 6.9 mph - N/A   Mostly Cloudy
7:54 AM 72.0 °F - 64.9 °F 78% 29.94 in 10.0 mi South 10.4 mph - N/A   Partly Cloudy
8:54 AM 73.9 °F - 64.9 °F 73% 29.93 in 10.0 mi SW 8.1 mph - N/A   Partly Cloudy
9:54 AM 75.9 °F - 64.9 °F 69% 29.93 in 10.0 mi South 9.2 mph - N/A   Mostly Cloudy
10:54 AM 75.9 °F - 64.0 °F 67% 29.94 in 10.0 mi SW 5.8 mph - N/A   Overcast
11:54 AM 75.9 °F - 66.0 °F 71% 29.93 in 10.0 mi West 4.6 mph - N/A   Mostly Cloudy
12:54 PM 79.0 °F - 66.0 °F 64% 29.90 in 10.0 mi Calm Calm - N/A   Scattered Clouds
1:54 PM 80.1 °F 82.7 °F 68.0 °F 67% 29.88 in 10.0 mi ESE 6.9 mph - N/A   Scattered Clouds
2:20 PM 75.2 °F - 69.8 °F 83% 29.88 in 8.0 mi Variable 4.6 mph - 0.00 in Rain , Thunderstorm Light Thunderstorms and Rain
2:26 PM 73.4 °F - 69.8 °F 88% 29.88 in 1.8 mi SE 4.6 mph - 0.08 in Rain , Thunderstorm Heavy Thunderstorms and Rain
2:30 PM 73.4 °F - 69.8 °F 88% 29.88 in 0.8 mi South 6.9 mph - 0.17 in Rain , Thunderstorm Heavy Thunderstorms and Rain
2:45 PM 71.6 °F - 69.8 °F 94% 29.87 in 1.5 mi Calm Calm - 0.47 in Rain , Thunderstorm Thunderstorms and Rain
2:48 PM 73.4 °F - 71.6 °F 94% 29.87 in 2.5 mi Calm Calm - 0.47 in Rain Light Rain
2:54 PM 73.9 °F - 71.1 °F 91% 29.86 in 8.0 mi Calm Calm - 0.47 in   Mostly Cloudy
3:54 PM 73.0 °F - 69.1 °F 87% 29.84 in 9.0 mi Variable 6.9 mph - N/A   Scattered Clouds
4:00 PM 71.6 °F - 69.8 °F 94% 29.84 in 1.8 mi SSE 8.1 mph - 0.06 in Rain Heavy Rain
4:13 PM 71.6 °F - 69.8 °F 94% 29.84 in 3.0 mi Variable 3.5 mph - 0.10 in Rain Light Rain
4:54 PM 75.0 °F - 70.0 °F 84% 29.83 in 10.0 mi ESE 4.6 mph - 0.10 in   Partly Cloudy
5:54 PM 75.0 °F - 70.0 °F 84% 29.80 in 10.0 mi Calm Calm - N/A   Partly Cloudy
6:54 PM 73.0 °F - 69.1 °F 87% 29.81 in 10.0 mi SE 4.6 mph - N/A   Overcast
7:10 PM 73.4 °F - 69.8 °F 88% 29.81 in 6.0 mi SE 6.9 mph - 0.01 in Rain , Thunderstorm Light Thunderstorms and Rain
7:16 PM 71.6 °F - 69.8 °F 94% 29.82 in 1.5 mi SE 5.8 mph - 0.06 in Rain , Thunderstorm Heavy Thunderstorms and Rain
7:20 PM 71.6 °F - 69.8 °F 94% 29.82 in 1.0 mi SSE 5.8 mph - 0.11 in Rain Heavy Rain
7:41 PM 71.6 °F - 69.8 °F 94% 29.82 in 2.0 mi Variable 6.9 mph - 0.26 in Rain Light Rain
7:47 PM 71.6 °F - 69.8 °F 94% 29.82 in 9.0 mi SE 5.8 mph - 0.26 in   Overcast
7:54 PM 71.1 °F - 69.1 °F 93% 29.82 in 9.0 mi Variable 4.6 mph - 0.26 in   Overcast
8:09 PM 69.8 °F - 68.0 °F 94% 29.82 in 10.0 mi Variable 6.9 mph - N/A   Mostly Cloudy
8:54 PM 69.1 °F - 66.9 °F 93% 29.81 in 10.0 mi Calm Calm - N/A   Clear
9:54 PM 69.1 °F - 66.9 °F 93% 29.81 in 10.0 mi South 5.8 mph - N/A   Overcast
10:54 PM 69.1 °F - 66.9 °F 93% 29.82 in 10.0 mi SSW 6.9 mph - N/A   Scattered Clouds
11:25 PM 69.8 °F - 66.2 °F 88% 29.82 in 10.0 mi Variable 6.9 mph - N/A   Mostly Cloudy
11:34 PM 69.8 °F - 66.2 °F 88% 29.82 in 10.0 mi Variable 5.8 mph 21.9 mph N/A   Mostly Cloudy
11:44 PM 69.8 °F - 66.2 °F 88% 29.82 in 10.0 mi WSW 4.6 mph - N/A   Scattered Clouds
11:54 PM 69.1 °F - 66.0 °F 90% 29.81 in 10.0 mi West 6.9 mph - N/A   Partly Cloudy